Location: Castello
(44.6167°N, 7.0500°E)
Time: 07:26:57
(UTC+00:00)

Daily predictions for brighter satellites

Satellite Brightness Start Highest point End
(mag) Time Altitude Azimuth Time Altitude Azimuth Time Altitude Azimuth
Cosmos 2297 Rocket 2.7 18:13:47 10° S 18:18:52 36° ESE 18:23:59 10° NE
Meteor 1-21 4.2 18:13:53 10° N 18:19:32 79° E 18:25:13 10° SSE
Cosmos 2098 Rocket 4.0 18:14:22 10° S 18:19:53 58° E 18:26:25 10° NNE
Cosmos 2242 Rocket 3.9 18:15:45 10° N 18:20:13 49° ENE 18:24:36 10° SSE
NOSS 3-2 (C) 4.2 18:17:57 10° NNW 18:25:21 63° NE 18:33:55 10° SE
COSMOS 2428 3.0 18:20:18 10° NNW 18:26:03 76° WSW 18:31:46 10° SSE
COSMO-SKYMED 1 4.4 18:22:52 10° N 18:26:51 36° WNW 18:30:50 10° SW
SJ-6B 3.6 18:24:07 10° SE 18:27:35 32° ENE 18:31:00 10° N
Iridium 4 Rocket 3.5 18:23:58 10° NNE 18:27:52 37° E 18:31:48 10° SSE
Cosmos 1271 Rocket 4.4 18:25:54 10° ESE 18:27:56 14° E 18:29:57 10° NE
CZ-4C R/B 4.3 18:25:22 10° N 18:29:11 54° WNW 18:33:09 10° SSW
Cosmos 2100 Rocket 4.2 18:23:21 10° N 18:29:44 80° W 18:36:01 10° S
Cosmos 1933 Rocket 4.0 18:26:26 10° SSW 18:30:43 67° W 18:35:04 10° N
PSLV R/B 4.1 18:28:30 10° S 18:32:28 74° WSW 18:36:26 10° NNW
GEOS 3 Rocket 3.8 18:27:39 10° NE 18:32:57 54° ESE 18:38:12 10° SSW
Cosmos 1975 3.0 18:29:15 10° SSW 18:33:12 76° W 18:37:13 10° N
Cosmos 2219 4.3 18:29:42 10° SSE 18:33:47 21° E 18:37:53 10° NE
ISS -2.0 18:31:28 10° NW 18:34:18 25° N 18:37:09 10° ENE
Cosmos 1726 2.1 18:31:19 10° S 18:34:42 50° E 18:38:08 10° NNE
Cosmos 2227 Rocket 2.9 18:30:35 10° SSE 18:35:25 30° ESE 18:40:15 10° NE
SL-14 R/B 3.5 18:33:46 10° N 18:37:29 46° ENE 18:41:09 10° SSE
USA 238 DEB 4.1 18:32:18 10° NNW 18:39:33 61° NE 18:47:13 10° SE
USA 238 4.1 18:32:25 10° NNW 18:39:38 60° NE 18:47:18 10° SE
Cosmos 1869 Rocket 3.5 18:36:42 10° S 18:41:01 80° E 18:45:22 10° N
MINOTAUR 4 R/B 3.8 18:40:10 10° NNE 18:43:35 72° ESE 18:46:59 10° S
USA 186 2.3 18:42:06 10° SE 18:45:00 37° ENE 18:47:56 10° N
SL-16 R/B 3.3 18:47:27 10° N 18:52:14 27° NE 18:55:39 16° E
BlueWalker 3 3.0 18:50:37 10° S 18:53:53 26° SE 18:55:50 18° E
BREEZE M DEB (TANK) 3.4 18:52:36 10° WNW 18:54:56 28° N 18:56:43 12° NE
BREEZE-M DEB (TANK) 3.9 18:49:30 10° WNW 18:56:19 46° N 18:58:34 15° ENE
Landsat 7 3.8 18:51:50 10° SSE 18:56:27 60° ENE 19:01:06 10° N
Cosmos 1867 4.0 18:54:28 10° SW 18:59:52 65° NW 19:05:19 10° NNE
Cosmos 2233 Rocket 3.9 18:54:43 10° N 19:00:53 68° E 19:07:03 10° SSE
CSL-04 Rocket 3.8 18:57:48 10° SSE 19:03:16 62° ENE 19:08:43 10° N
Spot 1 4.5 19:01:21 10° NNE 19:06:25 90° ENE 19:11:34 10° SSW
USA 215 4.1 19:02:39 10° NE 19:08:54 50° NNW 19:15:08 10° W
Cosmos 1110 Rocket 4.2 19:06:36 10° SSW 19:11:48 73° WNW 19:16:59 10° NNE
Cosmos 2263 Rocket 4.1 19:21:15 11° ENE 19:21:15 11° ENE 19:21:39 10° ENE
SL-4 R/B 2.2 19:13:21 10° SW 19:18:01 76° SE 19:21:28 18° ENE
Cosmos 1733 Rocket 2.9 19:14:53 10° S 19:19:10 71° E 19:23:29 10° NNE
Cosmos 1674 Rocket 3.9 19:16:01 10° N 19:20:09 43° ENE 19:21:45 30° SE
Meteor 2-13 Rocket 4.4 19:14:25 10° S 19:20:29 64° E 19:26:35 10° NNE
Cosmos 1766 3.0 19:17:21 10° S 19:21:07 80° E 19:24:56 10° N
Resurs 01 Rocket 2.0 19:19:50 28° ESE 19:21:40 43° ENE 19:25:52 10° N
CARTOSAT-1 4.5 19:23:13 28° E 19:23:49 29° ENE 19:27:32 10° N
Cosmos 2237 Rocket 2.5 19:18:36 10° NNW 19:24:12 68° WSW 19:29:41 10° SSE
CZ-4 R/B 3.4 19:23:39 10° SSW 19:26:57 27° W 19:30:20 10° NW
Resurs 1-3 3.7 19:22:47 10° S 19:27:09 75° W 19:31:32 10° NNW
Cosmos 1378 Rocket 3.6 19:24:26 10° N 19:28:48 56° ENE 19:30:39 32° SE
SPOT 1/Viking Rocket 3.5 19:30:09 22° SSE 19:33:28 69° ENE 19:38:40 10° N
Intercosmos 25 Rocket 4.0 19:27:06 10° N 19:34:02 86° E 19:37:03 21° S
Cosmos 968 Rocket 3.4 19:30:13 10° NNW 19:35:24 88° WSW 19:38:31 24° SSE
Landsat 5 3.2 19:37:25 10° NNE 19:41:20 71° ESE 19:43:41 24° S
NOSS 3-4 (A) 3.2 19:36:56 10° SW 19:42:33 88° SE 19:48:38 10° NE
NOSS 3-4 (C) 3.2 19:37:04 10° SW 19:42:40 87° SE 19:48:44 10° NE
USA 267 4.0 19:38:54 16° SSE 19:43:58 46° SW 19:50:15 10° WNW
FALCON 9 R/B 3.9 19:20:39 10° W 19:46:10 52° SSW 19:50:25 30° SE
Meteor 1-22 Rocket 4.4 19:41:12 10° S 19:47:10 59° E 19:53:06 10° NNE
Okean-O 3.0 19:46:16 20° S 19:49:13 63° WSW 19:53:37 10° NNW
Okean O Rocket 4.0 19:47:08 10° SSW 19:50:36 23° W 19:54:04 10° NW
Cosmos 1908 Rocket 3.7 19:51:55 54° E 19:51:55 54° E 19:56:06 10° NNE
SJ 16-02 2.3 19:49:41 10° N 19:53:11 32° NE 19:53:11 32° NE
SPOT 5 4.0 19:55:00 28° NE 19:55:00 28° NE 19:58:43 10° N
Lacrosse 5 rocket 3.2 19:50:53 10° W 19:54:36 29° NNW 19:58:04 11° NNE
Cosmos 2221 Rocket 3.8 19:50:24 10° NNW 19:54:47 66° W 19:56:56 29° S
Cosmos 1943 4.4 19:50:38 10° N 19:55:12 25° NE 19:55:47 24° ENE
ATLAS 3B R/B 4.5 19:51:35 10° NNW 19:57:21 23° NNE 20:01:27 15° ENE
CZ-4C R/B 3.2 19:50:45 10° NNW 19:57:45 56° NE 20:00:55 37° ESE
Ariane Rocket 3.4 19:59:14 42° ENE 19:59:18 42° ENE 20:04:05 10° N
Cosmos 2297 Rocket 3.7 19:57:39 10° WSW 20:02:53 37° NW 20:08:08 10° NNE
Cosmos 1271 Rocket 4.0 19:59:47 10° SW 20:03:19 39° WNW 20:06:51 10° N
Meteor 1-15 Rocket 4.3 19:58:00 10° SSW 20:03:48 84° W 20:09:43 10° N
Cosmos 1464 Rocket 3.9 19:59:38 10° N 20:06:02 74° E 20:08:13 43° SSE
Cosmos 2346 Rocket 4.4 20:01:17 10° S 20:07:25 89° W 20:13:41 10° N
Meteor 1-24 Rocket 3.7 20:03:07 10° N 20:09:08 80° E 20:10:56 48° SSE
Cosmos 2082 3.5 20:05:37 10° SSW 20:11:11 73° ESE 20:16:48 10° NNE
ISS -2.3 20:08:11 10° NW 20:10:27 37° NW 20:10:27 37° NW
PKM 4.1 20:08:28 10° NW 20:11:25 58° N 20:11:25 58° N
Cosmos 1975 Rocket 4.5 20:08:18 10° N 20:10:49 27° NE 20:10:49 27° NE
Meteor 2-15 4.3 20:06:59 10° N 20:13:09 89° WSW 20:15:21 43° S
Meteor 2-8 Rocket 4.3 20:10:25 10° N 20:16:36 88° E 20:18:27 49° S
MetOp-A 3.9 20:16:26 67° SSE 20:17:10 88° ENE 20:22:20 10° NNW
Cosmos 2219 3.7 20:11:54 10° SW 20:17:25 60° WNW 20:23:00 10° NNE
Cosmos 1470 3.5 20:17:55 46° WSW 20:18:27 50° WNW 20:22:16 10° N
Cosmos 2227 Rocket 3.3 20:13:51 10° SW 20:19:15 44° WNW 20:24:41 10° NNE
Meteor 2-15 Rocket 4.3 20:14:57 10° N 20:21:09 81° E 20:22:18 60° SSE
ADEOS Rocket 3.4 20:29:34 50° ENE 20:29:57 50° ENE 20:36:47 10° N
Geosat 4.3 20:29:29 56° SW 20:29:59 59° WSW 20:34:58 10° NW
BlueWalker 3 3.6 20:28:26 10° WSW 20:30:39 31° W 20:30:39 31° W
Meteor 2-19 Rocket 4.3 20:35:48 77° SSE 20:36:13 82° E 20:42:22 10° N
SL-16 R/B 2.6 20:31:08 10° NNW 20:36:40 55° WSW 20:37:33 50° SW
Cosmos 1816 Rocket 4.3 20:40:04 76° S 20:40:36 89° E 20:46:46 10° N
H-2A R/B 3.6 20:44:38 45° NNW 20:44:38 45° NNW 20:47:46 10° NNW
Terra 3.1 20:48:27 33° N 20:48:27 33° N 20:51:10 10° N
Cosmos 1503 Rocket 4.4 20:41:36 10° NNW 20:45:51 56° N 20:45:51 56° N
MetOp-B 4.4 20:46:51 62° WSW 20:46:58 62° WSW 20:52:18 10° NNW
Cosmos 1634 Rocket 4.4 20:41:02 10° N 20:46:14 49° NE 20:46:14 49° NE
SPOT 3 Rocket 3.9 20:48:30 60° N 20:48:30 60° N 20:52:46 10° NNW
SL-4 R/B 3.7 20:53:15 10° W 20:56:45 36° NW 20:56:45 36° NW
Resurs 01 Rocket 3.8 20:57:22 18° WSW 20:58:20 19° W 21:01:33 10° NW
SME Rocket 4.5 20:59:14 66° ENE 20:59:20 67° ENE 21:05:18 10° N
Cosmos 2263 Rocket 2.9 21:02:47 47° N 21:02:47 47° N 21:06:52 10° NNE
Cosmos 2034 Rocket 4.4 21:03:34 10° NNW 21:09:34 54° W 21:09:53 54° WSW
ATLAS 2AS CENTAUR R/B 4.1 21:18:46 29° NE 21:18:46 29° NE 21:22:01 10° NE
Tsikada Rocket 4.3 21:18:38 62° NW 21:18:38 62° NW 21:23:59 10° N
ERS-1 Rocket 4.3 21:22:31 37° NW 21:22:31 37° NW 21:25:40 10° NNW
SJ 16-02 3.9 21:28:24 10° NW 21:30:05 18° WNW 21:30:05 18° WNW
Lacrosse 5 rocket 4.4 21:32:15 10° NW 21:33:25 13° NNW 21:33:25 13° NNW
Cosmos 1943 4.5 21:34:07 10° NNW 21:37:36 37° NW 21:37:36 37° NW
CZ-4C R/B 3.7 21:39:20 10° NW 21:46:05 44° WSW 21:46:05 44° WSW
ATLAS 3B R/B 3.4 21:42:12 10° NNW 21:48:41 56° NNE 21:48:41 56° NNE
USA 215 4.5 22:33:00 35° NNE 22:33:00 35° NNE 22:38:44 10° NW
Cosmos 2344 4.2 22:31:06 10° NW 22:38:56 75° NW 22:38:56 75° NW
ATLAS 2AS CENTAUR R/B 4.0 23:06:04 36° NW 23:06:08 36° NW 23:12:48 10° NNE
